FW8563 Weather Reports


Display with metric or nautical units.
time (UTC)temp
F
wind
direction
speed
MPH
gust
MPH
rain 1hr
in
rain 24hr
in
rain mn
in
humidity
%
barometer
mb
20260901184112 76 340 0.0 1.0 0.00 0.00 0.00 56 1021.5
20260901183614 77 355 0.0 1.0 0.00 0.00 0.00 56 1021.5
20260901183112 77 315 0.0 1.0 0.00 0.00 0.00 55 1021.5
20260901182605 77 264 0.0 1.0 0.00 0.00 0.00 54 1021.4
20260901182059 78 272 0.0 1.0 0.00 0.00 0.00 53 1021.4
20260901181059 78 277 0.0 3.0 0.00 0.00 0.00 52 1021.4
20260901180559 79 255 1.0 4.0 0.00 0.00 0.00 51 1021.5
20260901180059 79 285 1.0 4.0 0.00 0.00 0.00 50 1021.3
20260901175600 79 238 1.0 3.0 0.00 0.00 0.00 50 1021.3
20260901175102 80 255 0.0 3.0 0.00 0.00 0.00 49 1021.2
20260901174602 80 245 0.0 1.0 0.00 0.00 0.00 48 1021.3
20260901174059 81 257 0.0 2.0 0.00 0.00 0.00 47 1021.3
20260901173601 81 236 0.0 2.0 0.00 0.00 0.00 46 1021.2
20260901173100 82 264 0.0 2.0 0.00 0.00 0.00 45 1021.3
20260901172602 83 262 0.0 2.0 0.00 0.00 0.00 44 1021.3
20260901172102 84 245 0.0 1.0 0.00 0.00 0.00 43 1021.3
20260901171600 84 242 0.0 1.0 0.00 0.00 0.00 43 1021.3
20260901171053 85 241 0.0 1.0 0.00 0.00 0.00 42 1021.3
20260901170550 85 250 0.0 1.0 0.00 0.00 0.00 42 1021.4
20260901170044 85 256 0.0 3.0 0.00 0.00 0.00 42 1021.4
20260901165544 84 255 0.0 3.0 0.00 0.00 0.00 41 1021.3
20260901165043 84 249 1.0 4.0 0.00 0.00 0.00 42 1021.3
20260901164544 84 253 1.0 4.0 0.00 0.00 0.00 41 1021.4
20260901164043 85 229 1.0 4.0 0.00 0.00 0.00 40 1021.3
20260901163546 85 254 1.0 5.0 0.00 0.00 0.00 41 1021.3
20260901163044 85 281 2.0 6.0 0.00 0.00 0.00 41 1021.4
20260901162546 85 273 3.0 6.0 0.00 0.00 0.00 40 1021.4
20260901162044 85 276 3.0 8.0 0.00 0.00 0.00 40 1021.4
20260901161545 85 276 2.0 10.0 0.00 0.00 0.00 38 1021.4
20260901161048 86 273 1.0 10.0 0.00 0.00 0.00 38 1021.4
20260901160549 85 285 3.0 10.0 0.00 0.00 0.00 39 1021.4
20260901160058 85 301 3.0 10.0 0.00 0.00 0.00 38 1021.3
20260901155542 85 262 3.0 9.0 0.00 0.00 0.00 38 1021.3
20260901155044 85 269 3.0 8.0 0.00 0.00 0.00 37 1021.3
20260901154540 86 255 3.0 10.0 0.00 0.00 0.00 36 1021.3
20260901153043 86 288 4.0 12.0 0.00 0.00 0.00 34 1021.2
20260901152542 86 176 4.0 10.0 0.00 0.00 0.00 35 1021.3
20260901152040 86 297 5.0 12.0 0.00 0.00 0.00 35 1021.3
20260901151540 86 285 4.0 12.0 0.00 0.00 0.00 36 1021.2
20260901151040 87 288 2.0 11.0 0.00 0.00 0.00 37 1021.3
20260901150539 87 276 2.0 8.0 0.00 0.00 0.00 37 1021.2
20260901150039 87 270 1.0 6.0 0.00 0.00 0.00 38 1021.2
20260901145539 87 99 2.0 8.0 0.00 0.00 0.00 38 1021.3
20260901145041 87 318 3.0 8.0 0.00 0.00 0.00 37 1021.3
20260901144539 87 257 3.0 10.0 0.00 0.00 0.00 36 1021.3
20260901143540 87 255 3.0 8.0 0.00 0.00 0.00 36 1021.2
20260901143041 87 210 3.0 10.0 0.00 0.00 0.00 36 1021.3
20260901142040 87 235 5.0 11.0 0.00 0.00 0.00 36 1021.3
20260901141540 87 225 5.0 11.0 0.00 0.00 0.00 35 1021.3
20260901141040 87 278 3.0 10.0 0.00 0.00 0.00 36 1021.2
20260901140039 87 254 3.0 8.0 0.00 0.00 0.00 37 1021.1
20260901135539 87 269 3.0 8.0 0.00 0.00 0.00 36 1021.1
20260901135042 87 255 3.0 8.0 0.00 0.00 0.00 37 1021.2
20260901134543 87 288 3.0 14.0 0.00 0.00 0.00 37 1021.1
20260901134039 87 268 4.0 14.0 0.00 0.00 0.00 37 1021.2
20260901133539 87 268 4.0 10.0 0.00 0.00 0.00 36 1021.2
20260901133042 87 289 3.0 7.0 0.00 0.00 0.00 36 1021.2
20260901132542 88 252 2.0 7.0 0.00 0.00 0.00 37 1021.2
20260901131539 88 285 4.0 10.0 0.00 0.00 0.00 38 1021.3
20260901131039 87 252 4.0 11.0 0.00 0.00 0.00 39 1021.3
20260901130541 87 269 4.0 11.0 0.00 0.00 0.00 39 1021.3
20260901130042 87 248 3.0 11.0 0.00 0.00 0.00 36 1021.4
20260901125539 88 255 3.0 12.0 0.00 0.00 0.00 38 1021.4
20260901125038 87 257 3.0 12.0 0.00 0.00 0.00 37 1021.4
20260901124533 87 262 3.0 9.0 0.00 0.00 0.00 36 1021.5
20260901124026 88 288 3.0 9.0 0.00 0.00 0.00 38 1021.4
20260901123524 87 230 3.0 9.0 0.00 0.00 0.00 39 1021.4
20260901123023 87 285 3.0 9.0 0.00 0.00 0.00 40 1021.4
20260901122525 86 185 3.0 9.0 0.00 0.00 0.00 54 1021.4
20260901121523 86 263 3.0 10.0 0.00 0.00 0.00 56 1021.4
20260901121023 86 245 0.0 7.0 0.00 0.00 0.00 49 1021.5
20260901120523 86 213 0.0 3.0 0.00 0.00 0.00 51 1021.4
20260901120022 86 13 0.0 1.0 0.00 0.00 0.00 51 1021.5
20260901115521 85 310 0.0 3.0 0.00 0.00 0.00 50 1021.5
20260901115021 85 285 1.0 3.0 0.00 0.00 0.00 55 1021.6
20260901114517 86 42 1.0 5.0 0.00 0.00 0.00 54 1021.6
20260901114017 86 266 1.0 5.0 0.00 0.00 0.00 54 1021.6
20260901113518 86 24 0.0 3.0 0.00 0.00 0.00 54 1021.6
20260901113014 85 263 1.0 8.0 0.00 0.00 0.00 55 1021.7
20260901112516 85 338 2.0 8.0 0.00 0.00 0.00 56 1021.7
20260901112015 85 264 1.0 6.0 0.00 0.00 0.00 60 1021.7
20260901111516 84 207 1.0 5.0 0.00 0.00 0.00 58 1021.8
20260901111015 84 233 0.0 5.0 0.00 0.00 0.00 58 1021.7
20260901110515 84 325 0.0 4.0 0.00 0.00 0.00 59 1021.8
20260901110013 83 146 1.0 4.0 0.00 0.00 0.00 59 1021.8
20260901105011 83 333 1.0 4.0 0.00 0.00 0.00 60 1021.9
20260901103013 82 307 2.0 6.0 0.00 0.00 0.00 62 1021.8
20260901102510 81 262 2.0 6.0 0.00 0.00 0.00 63 1021.8
20260901101504 81 248 2.0 5.0 0.00 0.00 0.00 63 1021.8
20260901101004 81 220 1.0 6.0 0.00 0.00 0.00 63 1021.9
20260901100507 82 295 1.0 6.0 0.00 0.00 0.00 63 1021.9
20260901100005 81 59 1.0 5.0 0.00 0.00 0.00 64 1022.0
20260901095003 80 18 2.0 7.0 0.00 0.00 0.00 61 1021.9
20260901094005 81 285 1.0 4.0 0.00 0.00 0.00 64 1021.9
20260901093503 80 285 1.0 6.0 0.00 0.00 0.00 66 1021.9
20260901093003 80 278 1.0 6.0 0.00 0.00 0.00 65 1022.0
20260901092503 79 4 1.0 5.0 0.00 0.00 0.00 67 1022.0
20260901092003 79 23 1.0 5.0 0.00 0.00 0.00 69 1021.9
20260901091505 79 32 1.0 7.0 0.00 0.00 0.00 67 1022.0
20260901090457 78 54 2.0 7.0 0.00 0.00 0.00 68 1021.9
20260901085955 78 345 2.0 9.0 0.00 0.00 0.00 71 1021.8
20260901084953 77 26 3.0 8.0 0.00 0.00 0.00 70 1021.8
20260901084456 78 39 2.0 8.0 0.00 0.00 0.00 70 1021.8
20260901083955 77 27 3.0 10.0 0.00 0.00 0.00 71 1021.8
20260901083451 77 50 4.0 10.0 0.00 0.00 0.00 71 1021.8
20260901082450 77 63 3.0 9.0 0.00 0.00 0.00 71 1021.7
20260901081950 77 15 3.0 8.0 0.00 0.00 0.00 71 1021.7
20260901081449 76 23 4.0 9.0 0.00 0.00 0.00 72 1021.6
20260901080948 76 348 4.0 9.0 0.00 0.00 0.00 71 1021.6
20260901080447 76 17 4.0 8.0 0.00 0.00 0.00 71 1021.6
20260901075947 76 19 3.0 8.0 0.00 0.00 0.00 71 1021.5
20260901075447 76 33 3.0 9.0 0.00 0.00 0.00 71 1021.5
20260901074941 76 35 3.0 9.0 0.00 0.00 0.00 71 1021.5
20260901074434 76 79 3.0 9.0 0.00 0.00 0.00 71 1021.5
20260901073937 76 16 2.0 8.0 0.00 0.00 0.00 71 1021.4
20260901072434 75 22 4.0 7.0 0.00 0.00 0.00 74 1021.3
20260901071933 74 13 4.0 9.0 0.00 0.00 0.00 73 1021.3
20260901071433 74 55 4.0 10.0 0.00 0.00 0.00 74 1021.3
20260901070432 74 57 3.0 10.0 0.00 0.00 0.00 74 1021.1
20260901065433 74 26 4.0 9.0 0.00 0.00 0.00 75 1021.1
20260901064934 73 110 4.0 9.0 0.00 0.00 0.00 76 1021.1
20260901064434 73 70 4.0 9.0 0.00 0.00 0.00 76 1021.1
20260901063928 73 51 4.0 10.0 0.00 0.00 0.00 76 1021.2
20260901063427 73 51 4.0 10.0 0.00 0.00 0.00 76 1021.2
20260901062928 72 57 4.0 9.0 0.00 0.00 0.00 76 1021.2
20260901062429 72 37 3.0 7.0 0.00 0.00 0.00 77 1021.2
20260901061930 72 33 3.0 7.0 0.00 0.00 0.00 76 1021.2
20260901061426 72 46 2.0 6.0 0.00 0.00 0.00 77 1021.1
20260901060927 71 53 2.0 9.0 0.00 0.00 0.00 76 1021.1
20260901055929 71 30 4.0 10.0 0.00 0.00 0.00 76 1021.0
20260901055427 71 8 6.0 11.0 0.00 0.00 0.00 76 1021.1
20260901054930 71 68 6.0 11.0 0.00 0.00 0.00 76 1020.9
20260901054427 70 20 5.0 10.0 0.00 0.00 0.00 76 1020.8
20260901053928 70 16 5.0 10.0 0.00 0.00 0.00 76 1020.8
20260901053428 70 29 5.0 9.0 0.00 0.00 0.00 76 1020.8
20260901052928 70 31 5.0 9.0 0.00 0.00 0.00 76 1020.8
20260901052426 70 30 5.0 9.0 0.00 0.00 0.00 76 1020.9
20260901051929 69 45 4.0 9.0 0.00 0.00 0.00 76 1020.8
20260901051427 69 33 3.0 8.0 0.00 0.00 0.00 76 1020.8
20260901050926 69 19 3.0 7.0 0.00 0.00 0.00 76 1020.7
20260901050426 69 42 3.0 7.0 0.00 0.00 0.00 76 1020.7
20260901045927 69 11 3.0 8.0 0.00 0.00 0.00 76 1020.7
20260901045429 69 55 3.0 8.0 0.00 0.00 0.00 76 1020.7
20260901044926 69 53 3.0 7.0 0.00 0.00 0.00 76 1020.7
20260901044429 69 353 3.0 7.0 0.00 0.00 0.00 76 1020.8
20260901043926 69 51 3.0 7.0 0.00 0.00 0.00 75 1020.8
20260901043428 69 49 3.0 7.0 0.00 0.00 0.00 75 1020.8
20260901042927 69 52 3.0 6.0 0.00 0.00 0.00 75 1020.9
20260901042428 69 51 4.0 7.0 0.00 0.00 0.00 75 1020.9
20260901041930 69 39 4.0 7.0 0.00 0.00 0.00 75 1021.0
20260901041428 69 65 4.0 9.0 0.00 0.00 0.00 75 1020.9
20260901035922 69 52 2.0 7.0 0.00 0.00 0.00 75 1021.1
20260901035422 69 57 2.0 7.0 0.00 0.00 0.00 75 1021.1
20260901034924 69 54 1.0 4.0 0.00 0.00 0.00 75 1021.1
20260901034424 69 60 1.0 4.0 0.00 0.00 0.00 75 1021.1
20260901033922 69 39 0.0 4.0 0.00 0.00 0.00 75 1021.1
20260901032916 69 24 0.0 1.0 0.00 0.00 0.00 76 1021.1
20260901032415 69 15 0.0 1.0 0.00 0.00 0.00 75 1021.2
20260901031912 69 29 0.0 2.0 0.00 0.00 0.00 76 1021.1
20260901031411 69 29 0.0 2.0 0.00 0.00 0.00 76 1021.2
20260901030909 69 39 0.0 3.0 0.00 0.00 0.00 75 1021.1
20260901030408 69 45 0.0 3.0 0.00 0.00 0.00 74 1021.2
20260901025909 69 62 0.0 2.0 0.00 0.00 0.00 74 1021.2
20260901025408 69 53 0.0 2.0 0.00 0.00 0.00 74 1021.1
20260901024907 69 72 0.0 2.0 0.00 0.00 0.00 73 1021.1
20260901024407 70 34 0.0 1.0 0.00 0.00 0.00 73 1021.0
20260901023905 70 32 0.0 1.0 0.00 0.00 0.00 72 1021.1
20260901023406 70 32 0.0 1.0 0.00 0.00 0.00 72 1021.0
20260901022905 70 37 0.0 1.0 0.00 0.00 0.00 71 1021.1
20260901022404 70 38 0.0 0.0 0.00 0.00 0.00 72 1021.0
20260901021902 70 38 0.0 0.0 0.00 0.00 0.00 72 1021.1
20260901021400 70 39 0.0 0.0 0.00 0.00 0.00 72 1021.1
20260901020859 70 39 0.0 0.0 0.00 0.00 0.00 72 1021.0
20260901020355 70 39 0.0 1.0 0.00 0.00 0.00 72 1021.0
20260901015358 70 38 0.0 2.0 0.00 0.00 0.00 72 1021.0
20260901014856 70 33 0.0 3.0 0.00 0.00 0.00 72 1021.1
20260901014356 71 34 1.0 4.0 0.00 0.00 0.00 72 1021.1
20260901013359 70 14 2.0 4.0 0.00 0.00 0.00 73 1021.0
20260901012856 70 25 3.0 5.0 0.00 0.00 0.00 73 1021.1
20260901012357 70 21 3.0 6.0 0.00 0.00 0.00 73 1021.1
20260901011856 70 30 4.0 8.0 0.00 0.00 0.00 73 1021.1
20260901011356 71 23 4.0 8.0 0.00 0.00 0.00 72 1021.0
20260901010850 71 32 3.0 6.0 0.00 0.00 0.00 71 1021.1
20260901010350 71 25 3.0 6.0 0.00 0.00 0.00 71 1021.1
20260901005851 71 27 3.0 6.0 0.00 0.00 0.00 71 1021.1
20260901005348 71 24 3.0 6.0 0.00 0.00 0.00 71 1021.2
20260901004851 71 33 2.0 5.0 0.00 0.00 0.00 71 1021.0
20260901004348 71 22 1.0 5.0 0.00 0.00 0.00 70 1021.1
20260901003850 71 14 3.0 6.0 0.00 0.00 0.00 70 1021.0
20260901003351 71 23 3.0 6.0 0.00 0.00 0.00 71 1021.0
20260901001850 71 19 2.0 6.0 0.00 0.00 0.00 72 1021.0
20260901001350 71 351 1.0 4.0 0.00 0.00 0.00 73 1021.1
20260901000848 71 15 1.0 3.0 0.00 0.00 0.00 74 1021.2
20260901000348 71 20 1.0 4.0 0.00 0.00 0.00 74 1021.2
20260831235848 71 24 2.0 5.0 0.00 0.00 0.00 75 1021.1
20260831234845 70 25 2.0 5.0 0.00 0.00 0.00 77 1021.1
20260831232844 71 11 2.0 6.0 0.00 0.00 0.00 75 1021.1
20260831232347 71 10 2.0 6.0 0.00 0.00 0.00 76 1021.2
20260831231842 71 5 2.0 5.0 0.00 0.00 0.00 76 1021.1
20260831231342 71 9 2.0 5.0 0.00 0.00 0.00 76 1021.1
20260831230842 71 3 1.0 4.0 0.00 0.00 0.00 76 1021.1
20260831230355 71 10 2.0 7.0 0.00 0.00 0.00 77 1021.0
20260831225342 71 12 2.0 5.0 0.00 0.00 0.00 76 1021.0
20260831224842 71 8 1.0 4.0 0.00 0.00 0.00 76 1021.0
20260831224336 71 7 1.0 4.0 0.00 0.00 0.00 76 1020.9
20260831223831 72 359 1.0 5.0 0.00 0.00 0.00 75 1020.9
20260831223330 72 4 1.0 5.0 0.00 0.00 0.00 74 1020.9
20260831222830 72 352 1.0 4.0 0.00 0.00 0.00 73 1020.9
20260831222331 72 358 2.0 5.0 0.00 0.00 0.00 72 1020.9
20260831221328 73 20 1.0 2.0 0.00 0.00 0.00 70 1020.8
20260831220828 73 9 0.0 2.0 0.00 0.00 0.00 70 1020.8
20260831220327 73 357 0.0 2.0 0.00 0.00 0.00 70 1020.6
20260831215824 73 359 0.0 3.0 0.00 0.00 0.00 70 1020.6
20260831215324 73 20 0.0 3.0 0.00 0.00 0.00 70 1020.6
20260831214824 73 342 0.0 1.0 0.00 0.00 0.00 70 1020.7
20260831214322 73 347 0.0 1.0 0.00 0.00 0.00 70 1020.6
20260831213822 73 336 0.0 1.0 0.00 0.00 0.00 70 1020.7
20260831213322 73 345 0.0 1.0 0.00 0.00 0.00 71 1020.6
20260831212323 73 352 0.0 3.0 0.00 0.00 0.00 71 1020.6
20260831211819 73 330 0.0 3.0 0.00 0.00 0.00 70 1020.6
20260831211321 73 345 0.0 1.0 0.00 0.00 0.00 70 1020.5
20260831210818 73 326 0.0 1.0 0.00 0.00 0.00 69 1020.6
20260831210316 74 302 0.0 2.0 0.00 0.00 0.00 68 1020.5
20260831205816 74 326 1.0 3.0 0.00 0.00 0.00 67 1020.5
20260831204317 73 2 0.0 1.0 0.00 0.00 0.00 68 1020.2
20260831203816 73 342 0.0 0.0 0.00 0.00 0.00 68 1020.3
20260831203318 74 334 0.0 1.0 0.00 0.00 0.00 68 1020.5
20260831202816 74 334 0.0 1.0 0.00 0.00 0.00 68 1020.3
20260831201809 73 355 1.0 3.0 0.00 0.00 0.00 68 1020.2
20260831201305 73 358 1.0 3.0 0.00 0.00 0.00 68 1020.2
20260831200805 73 8 1.0 3.0 0.00 0.00 0.00 68 1020.1
20260831200306 74 0 1.0 3.0 0.00 0.00 0.00 67 1020.1
20260831195804 75 14 1.0 3.0 0.00 0.00 0.00 66 1020.0
20260831195307 75 12 1.0 4.0 0.00 0.00 0.00 66 1019.9
20260831194804 75 359 1.0 5.0 0.00 0.00 0.00 66 1019.9
20260831194306 75 9 1.0 5.0 0.00 0.00 0.00 65 1019.8
20260831193806 75 354 1.0 3.0 0.00 0.00 0.00 65 1019.7
20260831193303 75 321 1.0 4.0 0.00 0.00 0.00 65 1019.6
20260831192806 75 352 1.0 4.0 0.00 0.00 0.00 64 1019.7
20260831192305 76 347 0.0 4.0 0.00 0.00 0.00 64 1019.7
20260831191804 76 25 1.0 5.0 0.00 0.00 0.00 64 1019.6
20260831191303 76 326 1.0 5.0 0.00 0.00 0.00 63 1019.6
20260831190802 76 11 1.0 4.0 0.00 0.00 0.00 63 1019.6
20260831185759 76 11 0.0 3.0 0.00 0.00 0.00 63 1019.5
20260831185306 76 8 0.0 2.0 0.00 0.00 0.00 63 1019.5
20260831184800 76 326 0.0 6.0 0.00 0.00 0.00 62 1019.4
20260831184300 77 10 0.0 6.0 0.00 0.00 0.00 62 1019.4